sat.trackr.live / text

‹ back to catalog

STARLINK-35831

NORAD 66374 · 2025-254AC

PAYLOAD ACTIVE UNKNOWN

§ Identity

Operator
Country
US
Launch date
2025-11-06
Launch site
AFWTR
Launch vehicle
Mass (kg)
RCS (m²)

Purposes: comms

External: N2YO · Heavens-Above · Gunter

§ Orbital elements

Epoch: 2026-05-24T23:29:27.766176Z

Period
94.10 min
Inclination
53.1580°
Eccentricity
0.0001335
Mean motion
15.30213780 rev/d
Perigee alt
474.3 km
Apogee alt
476.1 km
Semi-major
6,853.3 km
B*
5.6408e-4
RAAN
235.3683°
Arg perigee
81.7245°
Mean anomaly
278.3907°
Rev number
3,069

§ Raw data

STARLINK-358311 66374U 25254AC  26144.97879359  .00016391  00000+0  56408-3 0  99932 66374  53.1580 235.3683 0001335  81.7245 278.3907 15.30213780 30693

JSON: /api/v1/satellites/66374 · /tle

For live sub-satellite position, see the globe view (requires WebGL).

§ Visibility from observer

Set your observer location to see the next 7 days of passes ≥ 10°. The values pass through the URL so the page stays shareable.

No JS? Fill the form by hand. The geolocation button needs JavaScript.